Flag for Ukraine Weather past 2 weeks in Luhansk, Ukraine

Now
95 °F

Sunny.


Feels Like: 91 °F
Forecast: 68 / 91 °F
Wind: 13 mph from Northeast

Location: Rostov-Na-Donu

Current Time: Aug 4, 2015 at 5:09:35 PM

Latest Report: Aug 4, 2015 at 4:30 PM


Visibility: 10 mi

Pressure: 29.95 "Hg

Humidity: 15%

Dew point: 41 °F

Location of LuhanskLocation

Historic Weather in Luhansk — Graph

°F

Luhansk temperature yesterday

Maximum temperature yesterday: 91 °F (at 3:30 PM)
Minimum temperature yesterday: 70 °F (at 3:00 AM)
Average temperature yesterday: 80 °F

Past Weeks' High & Low Weather Summary

 TemperatureHumidityPressure
High99 °F (Jul 31, 3:00 PM)94% (Jul 29, 1:00 AM)30.15 "Hg (Jul 29, 1:00 AM)
Low59 °F (Jul 22, 5:00 AM)14% (Aug 4, 1:30 PM)29.65 "Hg (Jul 27, 7:30 PM)
Average80 °F45%29.89 "Hg
* Reported Jul 20 3:00 PM — Aug 4 3:30 PM, Luhansk, Weather by CustomWeather, © 2015

Note: Actual official high and low records may vary slightly from our data, if they occured in-between our weather recording intervals... More about our weather records

Advertising

Luhansk weather history for previous 24 hours

 ConditionsComfort  
Time TempWeatherWind HumidityBarometerVisibility
3:30 PM
Tue, Aug 4
95 °FPassing clouds.15 mph14%29.95 "HgN/A
3:00 PM95 °FPassing clouds.15 mph14%29.95 "HgN/A
2:30 PM95 °FSunny.15 mph14%29.98 "Hg10 mi
2:00 PM95 °FSunny.17 mph14%29.98 "Hg10 mi
1:30 PM95 °FPassing clouds.17 mph14%29.98 "HgN/A
1:00 PM93 °FSunny.20 mph15%29.98 "Hg10 mi
12:30 PM93 °FPassing clouds.17 mph15%30.01 "HgN/A
12:00 PM91 °FSunny.17 mph17%30.01 "Hg10 mi
11:30 AM91 °FSunny.17 mph17%30.01 "Hg10 mi
11:00 AM90 °FSunny.17 mph20%30.01 "Hg10 mi
10:30 AM88 °FSunny.17 mph22%30.01 "Hg10 mi
10:00 AM86 °FSunny.17 mph25%30.04 "Hg10 mi
9:30 AM84 °FSunny.15 mph25%30.04 "Hg10 mi
9:00 AM82 °FSunny.15 mph26%30.04 "Hg10 mi
8:30 AM81 °FSunny.17 mph28%30.04 "Hg10 mi
8:00 AM79 °FSunny.15 mph30%30.04 "Hg10 mi
7:30 AM79 °FSunny.13 mph30%30.04 "Hg10 mi
7:00 AM75 °FSunny.15 mph31%30.04 "Hg10 mi
6:30 AM75 °FSunny.15 mph31%30.04 "Hg10 mi
6:00 AM75 °FClear.13 mph31%30.04 "HgN/A
5:30 AM75 °FClear.15 mph31%30.04 "HgN/A
5:00 AM75 °FClear.15 mph31%30.04 "HgN/A
4:30 AM75 °FClear.13 mph31%30.04 "HgN/A
4:00 AM75 °FClear.13 mph31%30.04 "HgN/A
3:30 AM75 °FClear.13 mph31%30.04 "HgN/A
3:00 AM75 °FClear.13 mph29%30.04 "HgN/A
2:30 AM77 °FClear.13 mph28%30.04 "HgN/A
2:00 AM77 °FClear.15 mph28%30.04 "HgN/A
1:30 AM79 °FClear.15 mph24%30.04 "HgN/A
1:00 AM79 °FClear.17 mph24%30.04 "HgN/A
12:30 AM79 °FClear.15 mph24%30.04 "HgN/A
12:00 AM81 °FClear.15 mph23%30.04 "HgN/A
11:30 PM
Mon, Aug 3
81 °FClear.15 mph23%30.04 "HgN/A
11:00 PM81 °FClear.15 mph23%30.04 "HgN/A
10:30 PM81 °FClear.15 mph23%30.04 "HgN/A
10:00 PM79 °FClear.10 mph24%30.04 "HgN/A
9:30 PM77 °FClear.10 mph26%30.04 "HgN/A
9:00 PM79 °FClear.10 mph24%30.04 "HgN/A
8:30 PM79 °FClear.10 mph24%30.07 "HgN/A
8:00 PM81 °FClear.10 mph24%30.07 "HgN/A
7:30 PM84 °FSunny.8 mph23%30.07 "Hg10 mi
7:00 PM86 °FSunny.10 mph22%30.07 "Hg10 mi
6:30 PM88 °FSunny.10 mph22%30.07 "Hg10 mi
6:00 PM88 °FSunny.13 mph22%30.07 "Hg10 mi
5:30 PM90 °FSunny.15 mph21%30.07 "Hg10 mi
5:00 PM90 °FSunny.15 mph21%30.07 "Hg10 mi
Weather by CustomWeather, © 2015

See weather overviewHow to use our weather pages